Theta_e
344 344 333 328 310 307 303 307 315 312 313 318 318 317 317 321 315 307 331 340 346 348 349 352 354 353 352 352 352 353 352 352 352 352 354 355 354 354 355 356 355 353 352 351 351 350 350 349 349
332 333 323 318 304 298 301 308 307 311 316 321 322 323 324 322 330 329 333 344 347 348 346 347 353 352 352 351 352 352 352 352 352 351 352 354 354 353 353 353 352 350 349 348 348 348 348 351 353
326 327 313 309 304 298 302 307 309 312 318 316 317 322 327 324 331 330 342 346 347 344 343 345 350 350 350 350 350 351 351 350 350 350 350 353 354 353 352 351 349 347 346 345 348 351 353 354 355
315 309 309 305 301 305 308 310 317 313 316 316 317 315 327 335 332 340 346 346 344 342 340 349 349 349 348 348 349 349 349 348 349 349 349 351 352 352 352 349 347 345 346 349 351 353 355 356 357
310 302 303 301 301 307 311 314 315 311 310 313 316 316 322 333 341 344 344 344 341 339 341 343 350 349 349 349 349 349 349 350 350 350 350 350 351 350 349 348 348 347 350 352 354 356 358 358 359
303 299 300 298 305 313 313 316 312 311 312 314 316 315 319 336 337 341 343 341 343 342 342 343 349 349 349 349 349 350 351 351 351 351 351 350 350 349 350 350 351 353 355 355 356 358 359 358 357
300 294 293 303 306 308 311 315 311 312 312 313 318 314 322 331 336 341 342 341 342 342 341 341 342 346 350 351 351 351 351 352 352 353 353 352 351 351 352 354 355 356 356 357 359 358 357 356 355
301 296 303 304 304 308 314 314 313 312 311 321 323 314 318 330 339 341 341 338 337 338 339 338 340 340 342 343 351 351 351 352 352 353 352 352 353 354 355 355 354 356 358 359 358 358 355 346 358
301 294 292 298 306 307 315 310 312 315 317 316 319 320 328 335 339 336 334 332 331 336 334 336 337 337 341 342 345 351 351 351 352 352 354 351 345 345 349 354 357 358 359 358 356 350 344 350 357
297 291 294 299 310 309 311 314 309 314 315 313 318 327 332 336 333 331 328 327 328 330 333 335 335 337 338 345 342 342 343 344 346 346 344 345 343 343 349 354 360 359 356 344 340 340 338 335 335
295 294 297 302 311 314 311 314 311 313 310 314 317 326 331 332 330 329 326 326 327 330 333 335 334 336 337 337 338 339 341 341 342 342 341 339 344 342 347 347 338 330 331 320 320 320 320 323 330
293 299 301 303 306 313 312 310 310 314 311 319 322 329 329 328 327 327 326 326 323 325 330 333 335 334 334 334 336 338 337 337 337 337 338 341 343 342 345 325 320 318 318 319 318 317 317 319 326
294 299 300 303 303 312 316 310 312 311 315 321 323 326 325 326 326 327 327 326 325 325 328 330 332 332 333 329 333 332 333 334 335 337 340 347 336 332 323 320 320 318 318 318 318 316 315 317 322
301 301 302 303 304 315 314 311 311 310 318 320 321 320 323 323 324 324 324 322 325 326 327 329 330 331 331 330 328 330 331 333 335 339 346 345 331 324 321 320 320 320 318 318 318 317 315 315 318
302 299 301 302 309 311 314 306 306 313 318 318 319 320 320 320 321 321 322 321 323 326 328 328 329 330 328 329 328 328 333 336 338 344 346 337 329 325 322 322 322 320 319 320 319 318 315 314 318
298 296 295 300 309 312 313 305 308 316 316 315 318 319 320 318 320 320 321 321 321 325 325 326 330 329 327 329 331 331 337 342 343 346 341 333 329 326 323 324 323 321 320 319 319 317 314 311 313
293 293 294 300 303 305 307 303 307 315 316 314 316 318 319 319 318 318 320 321 321 322 324 324 327 328 328 331 337 340 344 344 342 341 336 331 329 325 324 322 322 320 319 318 318 317 312 310 311
289 290 292 294 298 301 304 306 306 313 314 314 315 316 318 318 319 320 317 321 321 322 325 325 328 331 330 336 343 343 344 343 340 337 334 330 329 324 324 322 321 320 318 317 316 315 315 313 311
294 292 292 295 299 300 300 306 305 311 312 311 313 314 316 317 321 321 318 319 319 323 325 325 332 334 333 339 342 340 341 338 335 333 330 329 328 328 324 323 321 317 318 317 317 314 311 312 311
295 292 293 296 299 303 302 304 307 307 310 311 312 313 315 317 317 318 313 316 319 322 326 326 331 335 336 341 342 340 339 334 331 329 328 329 328 327 324 323 321 318 317 317 316 314 312 310 310
293 292 293 295 298 300 303 299 305 307 309 309 310 314 315 316 315 316 313 316 319 321 326 327 330 334 338 339 339 334 332 328 326 324 325 328 327 326 325 323 321 319 317 315 314 314 311 308 308
291 297 298 297 293 289 302 294 299 306 308 311 310 311 311 314 316 316 316 316 319 321 326 329 331 333 338 344 341 338 338 332 326 324 325 326 326 326 325 324 322 319 318 315 315 314 311 308 306
296 298 297 296 291 289 290 290 294 299 303 307 311 313 313 314 314 315 316 317 321 322 325 329 332 335 341 345 343 341 339 336 326 325 324 323 326 327 326 324 322 321 319 317 315 313 311 308 306
302 296 293 290 288 284 289 289 288 294 300 304 308 311 314 315 314 315 317 318 320 323 326 332 334 335 341 344 345 342 340 326 324 323 323 323 325 325 327 325 323 320 319 317 314 312 310 308 306
295 290 286 285 285 285 289 288 290 297 300 303 304 306 307 313 316 316 314 316 319 323 330 334 336 335 339 342 343 342 334 328 325 322 323 324 324 324 324 324 322 320 319 318 314 312 310 307 305
293 292 287 282 282 285 290 286 292 300 302 303 305 305 307 306 308 315 317 316 318 325 331 335 336 336 338 340 338 335 328 329 328 325 324 326 325 326 325 324 322 321 320 318 315 311 310 309 307
295 291 293 288 285 284 287 291 298 300 303 306 307 306 304 306 318 310 312 316 318 327 332 335 337 337 337 330 335 330 328 326 326 325 326 326 326 326 325 324 322 321 320 317 313 310 308 309 306
298 299 290 287 283 281 285 288 291 298 299 304 305 305 304 309 322 316 314 320 326 330 333 336 337 335 330 328 333 331 328 326 326 325 324 325 325 326 325 324 322 320 319 315 311 309 308 307 306
296 293 291 290 288 284 282 287 297 298 301 303 304 306 306 309 321 325 323 324 327 330 333 336 333 329 328 331 337 332 327 325 325 325 324 324 324 325 325 324 321 319 317 314 310 308 308 306 304
298 295 293 289 288 288 287 288 299 300 301 302 304 307 308 308 317 326 326 326 326 330 333 333 332 327 328 337 338 332 328 327 325 324 323 323 323 325 326 324 320 318 316 315 311 310 308 306 303
Wind_Speed
6 5 1 3 4 5 4 5 4 3 3 1 4 2 8 3 7 5 4 6 16 13 8 11 15 16 15 14 13 12 11 11 11 11 11 11 11 10 9 8 7 7 6 5 5 6 7 8 9
4 5 1 2 5 5 4 4 7 4 2 6 6 4 6 3 3 7 7 9 13 10 6 6 15 15 14 13 13 12 11 10 10 10 9 9 8 7 6 5 5 4 3 4 4 5 7 8 8
2 2 3 4 3 2 4 1 4 3 1 3 4 5 4 3 6 8 8 13 11 7 6 7 15 14 14 13 12 11 10 9 9 9 8 8 7 5 4 3 2 1 2 3 4 5 7 8 8
3 3 4 4 1 4 4 5 4 4 4 6 3 6 4 2 11 8 13 12 11 7 5 11 14 14 13 13 12 11 11 10 10 9 8 8 7 6 4 3 3 2 2 2 4 5 6 7 6
4 4 3 2 3 4 5 3 5 7 2 4 3 4 5 6 11 18 15 11 12 7 6 8 15 15 14 14 13 12 12 10 10 9 8 7 6 5 5 4 4 4 4 5 6 6 6 7 8
3 3 4 2 3 4 4 5 7 4 3 2 5 7 2 11 15 13 12 11 9 11 7 7 14 14 13 13 12 11 9 9 8 7 6 5 5 5 5 4 5 6 7 8 8 7 8 10 11
5 4 3 3 4 4 3 5 8 7 6 1 6 5 3 7 9 13 10 7 7 6 6 5 6 10 13 12 11 10 9 8 8 6 6 6 5 5 5 5 6 7 7 7 9 10 11 12 12
5 5 4 2 0 5 1 1 4 10 2 5 6 7 6 10 12 11 9 6 5 4 5 6 5 5 5 6 12 11 10 9 7 7 7 7 6 5 5 5 4 6 6 6 8 9 10 10 12
3 5 3 5 3 5 6 6 3 2 11 2 4 6 12 18 14 12 9 4 3 4 4 5 6 6 6 5 6 9 11 10 10 9 9 6 3 4 4 4 4 4 5 7 7 9 12 12 14
5 4 9 6 4 4 4 5 10 6 10 1 6 12 19 19 16 15 12 10 6 7 7 6 6 6 6 6 5 5 5 4 5 5 5 4 5 4 4 4 3 2 4 10 10 12 13 9 4
5 6 6 7 11 10 3 6 7 11 7 9 21 20 22 21 16 15 13 15 18 11 7 9 7 6 7 5 4 3 3 3 3 5 4 4 3 3 2 1 3 3 5 4 5 7 5 6 4
3 9 8 10 10 8 6 6 7 15 7 15 22 25 22 22 18 16 15 13 8 10 12 10 9 7 7 4 4 4 4 3 3 4 3 3 2 2 3 3 3 4 2 5 5 4 5 6 6
4 6 6 14 10 12 10 10 5 15 1 15 16 19 21 20 19 16 17 14 12 12 12 12 11 10 9 6 4 4 5 4 4 4 5 3 3 4 4 4 4 3 3 4 5 5 5 5 5
4 5 8 10 5 8 12 3 8 7 9 17 17 17 18 20 20 15 12 14 14 15 14 13 14 12 9 8 6 6 4 5 4 3 4 6 5 5 5 4 4 4 3 4 5 5 5 5 4
5 7 7 3 3 3 10 4 15 7 14 18 19 16 15 18 16 18 18 15 17 15 18 16 15 13 11 12 9 5 5 5 5 5 5 5 5 5 6 5 4 3 3 6 5 5 5 5 4
6 4 3 5 6 3 11 13 8 18 20 18 20 17 17 17 21 18 18 17 16 14 15 14 15 16 14 12 10 7 7 4 5 5 5 7 8 7 6 5 4 2 3 4 5 3 4 5 4
7 2 2 8 5 4 5 7 5 14 19 20 19 19 19 16 13 15 17 19 17 17 15 14 16 16 16 12 9 8 9 6 6 7 6 7 8 8 7 5 3 4 4 4 4 4 3 3 3
3 4 4 5 3 2 8 11 8 18 21 23 20 18 19 19 25 21 17 17 15 16 17 16 15 16 14 8 6 4 5 5 5 5 5 7 5 8 7 6 5 4 5 4 4 5 5 4 3
2 3 5 7 8 3 4 8 14 21 14 15 16 17 19 22 24 18 12 15 11 15 16 17 15 11 9 4 5 2 5 4 3 3 7 7 7 6 7 6 5 4 5 5 4 3 4 5 2
3 4 10 9 5 4 6 6 5 11 22 19 20 18 21 22 16 16 10 15 17 19 18 17 17 12 13 10 6 4 5 3 3 4 4 6 7 9 8 9 6 6 5 6 3 3 2 3 5
4 4 7 10 6 3 2 6 3 6 8 10 9 18 19 23 23 20 14 19 19 21 20 19 18 17 15 7 6 4 6 4 4 3 4 6 8 8 8 9 8 7 5 5 4 4 3 4 3
6 8 11 6 2 3 3 5 5 5 11 15 21 17 21 23 20 19 20 16 20 20 18 19 18 17 13 15 11 15 12 10 5 6 5 7 9 9 9 9 9 7 5 6 4 4 4 2 4
11 3 7 4 3 4 4 3 9 3 5 11 20 24 22 26 24 22 22 23 21 17 18 18 17 17 17 18 18 16 16 9 6 6 10 8 6 9 10 10 9 8 5 6 7 5 6 2 3
5 3 5 5 4 2 7 7 7 5 9 5 6 12 18 19 22 24 24 25 13 15 17 17 21 20 20 20 19 17 15 12 11 9 9 6 3 3 8 10 9 8 8 7 6 6 7 5 5
5 7 4 6 6 7 2 4 10 8 8 9 12 14 12 15 18 21 22 21 20 20 21 18 21 22 22 20 15 12 11 14 17 15 10 11 8 5 8 10 10 8 7 7 7 7 7 6 5
2 8 7 7 5 7 2 5 8 10 10 9 11 12 15 15 12 22 26 24 25 26 24 24 23 22 22 17 12 10 12 10 10 14 11 10 10 9 10 10 11 11 10 8 7 5 5 6 5
3 3 5 2 2 3 4 7 9 6 8 8 10 10 10 8 7 10 9 17 21 21 23 25 23 21 17 11 11 11 12 12 11 12 12 11 9 8 12 13 12 11 11 10 9 6 6 6 5
6 5 1 3 3 5 5 3 6 8 9 8 10 8 8 7 9 8 10 12 16 19 20 18 18 20 14 12 11 11 12 11 11 12 13 13 10 10 11 12 13 12 11 11 9 6 6 7 5
1 3 4 5 6 6 3 7 8 8 8 9 9 8 6 6 7 4 6 7 15 14 16 16 15 14 11 14 13 13 12 13 13 13 13 12 9 12 13 14 14 13 12 12 9 8 8 8 7
3 5 5 6 5 3 4 8 3 5 9 8 10 15 16 11 8 8 6 5 8 15 16 18 17 16 15 12 13 13 13 14 13 13 13 13 13 12 13 13 14 13 13 13 12 12 10 11 9
Wind_Direction
143 166 171 66 52 61 345 323 281 204 359 300 119 184 173 97 156 202 125 133 134 145 152 156 150 141 140 138 136 129 129 128 122 119 112 107 109 109 105 101 98 91 81 66 47 24 10 13 24
150 162 35 66 77 48 306 280 5 328 153 104 78 67 44 27 57 113 111 136 127 130 126 142 146 140 140 140 139 137 137 135 130 126 125 123 121 119 116 110 103 89 67 40 22 9 2 3 12
182 288 86 100 112 158 182 287 70 360 243 312 114 70 97 132 95 141 126 130 113 109 128 160 145 140 142 142 142 143 142 139 135 133 135 140 143 143 141 131 114 61 19 8 3 355 351 352 351
159 18 31 75 344 256 206 216 186 161 324 23 89 65 53 237 138 132 125 122 116 120 138 148 143 142 145 145 146 148 149 148 146 146 150 160 168 176 188 203 220 241 270 322 340 345 345 339 323
29 51 52 96 245 253 244 247 189 132 96 355 334 79 90 124 106 130 135 132 134 132 155 146 150 153 153 152 154 156 157 155 155 159 166 174 185 202 223 242 263 294 318 337 346 347 339 320 315
46 99 53 270 240 255 249 225 146 100 98 107 84 93 63 126 133 141 140 142 147 154 159 158 159 158 157 159 160 160 159 162 167 172 179 189 210 232 254 280 305 319 338 350 348 345 343 332 327
121 85 206 266 280 311 258 190 129 127 123 143 162 84 84 146 151 139 133 126 143 152 140 141 153 166 166 165 167 168 171 180 189 196 203 215 229 245 271 300 316 332 352 350 345 351 345 344 345
99 87 350 231 57 286 130 1 150 114 138 125 163 144 185 180 150 120 114 111 126 151 155 152 158 155 160 173 178 180 187 197 203 208 211 220 235 251 277 294 320 337 344 345 343 346 352 22 67
123 54 275 268 184 224 182 105 329 95 134 239 213 132 152 142 130 122 123 105 127 171 174 164 164 171 176 182 193 190 195 205 214 217 222 220 236 249 249 259 284 338 350 353 22 27 36 65 86
111 124 219 247 248 252 117 101 155 122 161 301 90 91 131 139 146 151 164 171 179 191 193 184 180 180 175 189 194 192 209 211 216 214 213 218 230 224 240 246 251 33 31 64 61 52 53 66 49
174 185 231 263 228 257 281 138 162 128 216 219 153 149 152 154 163 169 174 180 186 191 187 187 189 186 184 209 186 199 205 223 229 224 219 229 237 248 231 31 34 61 80 64 61 59 49 84 91
165 236 184 257 230 203 202 140 165 176 224 165 160 159 156 164 171 176 178 190 179 183 191 185 191 187 202 207 191 195 194 218 233 238 233 238 214 173 129 116 118 95 68 89 71 64 62 64 96
170 228 222 247 255 206 156 185 173 200 311 140 151 158 166 171 177 183 183 181 183 187 191 192 186 194 200 209 201 193 206 204 211 219 214 195 136 133 133 117 108 100 80 82 63 59 63 56 94
236 210 254 278 270 165 161 120 128 190 161 148 167 169 179 180 184 181 184 186 184 184 191 187 194 195 190 201 197 204 201 202 201 218 213 165 155 141 119 119 108 104 112 93 93 75 61 61 80
281 319 340 292 120 100 102 108 224 155 161 164 179 185 179 193 188 192 189 190 186 195 190 185 192 191 190 194 200 198 214 185 186 177 164 148 132 137 126 123 107 113 110 101 89 64 59 54 51
8 42 27 273 117 230 130 236 228 164 157 181 186 190 196 198 199 196 193 196 191 187 193 190 192 192 194 193 193 197 211 187 177 165 154 150 151 138 113 113 114 151 99 90 88 73 58 56 50
1 253 292 327 198 101 132 253 207 177 171 183 191 195 200 206 215 208 202 196 189 188 192 192 195 197 198 194 193 188 183 162 170 150 163 160 146 143 128 126 136 122 94 72 87 61 84 57 45
246 347 318 276 295 121 198 237 186 183 185 188 192 195 205 208 215 212 207 203 194 190 190 192 196 199 198 187 171 149 158 145 151 155 147 137 143 133 131 123 125 120 98 75 73 83 40 60 75
256 218 264 255 258 248 251 221 199 198 195 189 190 202 210 218 215 212 211 216 188 195 191 191 187 187 173 152 153 137 171 151 133 131 132 143 137 131 133 124 127 122 110 123 120 91 70 46 20
237 308 294 291 329 160 304 287 227 185 206 201 193 199 214 226 218 215 201 207 198 196 195 188 188 174 182 179 181 152 145 114 115 124 153 148 161 153 146 139 139 128 113 101 94 100 103 51 6
250 209 256 231 337 318 28 321 207 192 199 219 233 222 219 219 214 211 203 205 205 200 189 190 187 182 184 149 116 89 82 81 114 156 152 182 167 154 156 145 140 130 126 125 115 109 104 129 33
277 210 231 243 135 218 83 272 300 201 230 221 223 217 224 224 223 223 216 210 210 208 190 190 187 183 174 173 169 167 181 173 199 160 151 178 170 165 158 150 141 134 132 120 113 112 116 116 121
237 155 206 209 158 80 334 89 267 331 265 230 226 223 224 224 221 215 213 216 210 189 192 190 180 179 179 181 188 190 182 177 146 147 157 164 186 178 161 151 142 138 129 124 118 112 106 107 127
253 133 43 37 100 61 237 162 271 238 223 284 264 199 224 229 227 223 213 216 180 185 186 186 180 187 189 195 198 199 185 155 144 149 171 162 180 177 172 153 144 141 133 137 132 127 117 122 100
86 62 334 341 353 228 286 66 242 258 243 227 268 282 245 223 227 223 213 205 191 186 185 183 184 191 196 199 190 181 170 161 157 159 168 161 165 204 187 154 143 146 141 140 136 137 137 137 128
189 151 154 227 225 247 1 247 247 226 267 252 249 255 274 267 218 220 216 202 194 188 185 184 191 195 195 195 177 146 156 165 169 163 165 180 183 182 174 155 150 149 142 141 141 140 132 130 129
277 207 194 155 52 68 225 294 301 278 290 308 315 350 330 285 262 242 233 204 194 186 189 187 190 198 191 173 158 155 161 160 169 161 169 181 178 179 172 157 150 151 148 147 149 144 133 142 134
162 176 24 14 258 267 284 264 234 293 290 301 319 331 317 320 326 305 160 163 183 186 189 192 192 195 187 170 173 161 165 166 161 162 175 184 173 171 168 157 155 152 151 149 150 142 141 137 135
295 259 63 120 147 187 222 264 223 246 260 253 277 286 257 267 255 255 311 194 186 186 184 189 192 188 177 177 173 165 164 168 163 171 175 182 169 168 175 163 161 157 157 160 156 144 145 134 134
231 232 157 136 252 216 164 259 261 295 307 323 324 325 326 303 235 207 191 182 202 189 185 194 197 193 194 177 169 170 167 172 173 175 175 165 175 171 172 170 164 163 165 166 154 154 148 145 149